{"data":{"norad_id":62981,"epoch":"2026-09-21T09:10:18.400224Z","epoch_age_seconds":89377,"freshness":"FRESH","line1":"1 62981U 25031A   26264.38215741  .00130817  00000+0  10061-2 0  9997","line2":"2 62981  43.0003 261.5431 0001317 263.1346  96.9372 15.70862825 93526","mean_motion":15.70862825,"eccentricity":0.0001317,"inclination_deg":43.0003,"raan_deg":261.5431,"arg_perigee_deg":263.1346,"mean_anomaly_deg":96.9372,"bstar":0.0010061,"rev_number":9352,"period_min":91.669366483353,"perigee_km":355.54288178598,"apogee_km":357.31676668748,"semimajor_km":6734.5668242367,"source":"CELESTRAK","updated_at":"2026-09-22T09:00:49.716136Z"}}